Thursday, October 23, 2014
10:16 UTC
  |  Log In   |  Register Free
Airport Search:

La Porte Municipal Airport
(T41)

La Porte Municipal Airport Diagram
No Airport Diagram Available

FAA data valid effective September 18, 2014 - November 13, 2014 (unless otherwise noted).

 
 
 
 
 
 
 
 
 
 
 
 
 
 

Current Aviation Weather for La Porte Municipal Airport (T41)

METAR data is unavailable for T41. The nearest METAR location is at KEFD (6.2 nm SW from T41).

The most recent METAR observation for KEFD was updated at: 1010
METAR Summary (Translated METAR)
KEFD
230950Z 03004KT 10SM FEW250 18/15 A3008
(6.2 nm SW from T41)
KHOU
230953Z 05003KT 10SM SCT250 17/14 A3006 RMK AO2 SLP185 T01670139
(11.3 nm SW from T41)
TAF Summary (Translated TAF)
KEFD
2304/2410 06006KT 9999 SCT200 QNH3005INS TX27/2321Z TN19/2311Z
KHOU
(6.7 nm NW from KEFD)
230520Z 2306/2406 VRB03KT P6SM FEW030 FEW250 FM231300 05007KT P6SM SCT150
  Airport Weather Conditions for T41

Current weather conditions are
not available for T41


The nearest NOAA weather station
is at EFD, (6.2 nm SW from T41)
  
 Current Weather at EFD
64° F
A Few Clouds
Northeast winds at 4.6 mph
EFD NOAA Radar

Pressure: 30.08 in
Humidity: 83%
Wind: Northeast at 4.6 MPH (4 KT)
Dew Point: 59.0°F
Visibility: 10.00 mi


Airport Weather Forecast for T41

Translated METAR and TAF for KEFD
Translated METAR for KEFD (1011 UTC 23 October 2014)
found at http://aviationweather.gov/adds/metars/
 
METAR text: KEFD 230950Z 03004KT 10SM FEW250 18/15 A3008
Conditions at: KEFD (HOUSTON/ELLINGTO, TX, US) observed 0950 UTC 23 October 2014
Temperature: 18.0°C (64°F)
Dewpoint: 15.0°C (59°F) [RH = 83%]
Pressure (altimeter): 30.08 inches Hg (1018.7 mb)
Winds: from the NNE (30 degrees) at 5 MPH (4 knots; 2.1 m/s)
Visibility: 10 or more miles (16+ km)
Ceiling: at least 12,000 feet AGL
Clouds: few clouds at 25000 feet AGL
Weather: no significant weather observed at this time
Translated TAF for KEFD
Forecast for: KEFD (HOUSTON/ELLINGTO, TX, US)
TAF Text: TAF KEFD 2304/2410 06006KT 9999 SCT200 QNH3005INS TX27/2321Z TN19/2311Z
Forecast period: 0400 UTC 23 October 2014 to 1000 UTC 24 October 2014
Forecast type: FROM: standard forecast or significant change
Winds: from the ENE (60 degrees) at 7 MPH (6 knots; 3.1 m/s)
Visibility: 6 or more miles (10+ km)
Clouds: scattered clouds at 20000 feet AGL
Weather: no significant weather forecast for this period

Find All Airport Services Find A Hotel Find A Rental Car Find A Golf Course Find A Restaurant $100 Hamburger



FBO's on the Field
FBO Company Facility Photos Services Transportation Aviation Fuel Prices: Prices include tax
Catering Weather Repair Courtesy Rental Type 100LL JetA JetA+ MOGAS 8087
 
Harvey & Rihn Aviation

This FBO has not yet been rated
FS:Independent
Last Updated: Oct-06
Login to update fuel prices
SS:
Contact Harvey & Rihn AviationMore FBO Information
 
Tri-Star Aviation

This FBO has not yet been rated
FS:Avfuel
Last Updated: Oct-10
Login to update fuel prices
SS:
Contact Tri-Star AviationMore FBO Information
 
Add another FBO Facility Photos Catering Weather Repair Courtesy Rental Type 100LL JetA JetA+ MOGAS 8087
Services Transportation Aviation Fuel Prices: Prices include tax


model-print
model-print
model-print
model-print